Miscellaneous Local Product
Issued by NWS Hastings, NE

Home | Current Version | Previous Version | Text Only | Print | Product List | Glossary On
Versions: 1 2 3 4 5 6 7 8 9 10 11 12 13 14 15 16 17 18 19 20 21 22 23 24 25 26 27 28 29 30 31 32 33 34 35 36 37 38 39 40 41 42 43 44 45 46 47 48 49 50
000
AXUS43 KGID 230702
MISGRI

GID CWA HOURLY WEATHER ROUNDUP
NATIONAL WEATHER SERVICE HASTINGS NE
200 AM CDT SAT MAY 23 2015

NOTE: "FAIR" INDICATES FEW OR NO CLOUDS BELOW 12,000 FEET WITH NO
SIGNIFICANT WEATHER AND/OR OBSTRUCTIONS TO VISIBILITY.

...SOUTH CENTRAL NEBRASKA...

CITY           SKY/WX    TMP DP  RH WIND       PRES   REMARKS
GRAND ISLAND   CLOUDY    54  50  86 SE9       30.15F
HASTINGS       CLOUDY    54  50  86 S10       30.14F
KEARNEY        CLOUDY    54  50  87 SE15      30.13F
ORD            CLOUDY    51  50  96 SE7       30.13F FOG
YORK           CLOUDY    55  46  71 S12       30.17S
AURORA         CLOUDY    54  48  80 SE8       30.16S
LEXINGTON      CLOUDY    54  53  97 SE10G17   30.11F FOG
HOLDREGE       CLOUDY    53  51  95 SE13      30.12S FOG
HEBRON         CLOUDY    56  47  70 S7        30.17S

...NEBRASKA PANHANDLE...

CITY           SKY/WX    TMP DP  RH WIND       PRES   REMARKS
CHADRON        CLOUDY    47  44  90 SE6       30.06F
ALLIANCE       CLOUDY    46  44  93 SE12      30.06S
SCOTTSBLUFF    CLOUDY    46  45  96 SE12      30.07R
SIDNEY         FOG       46  46 100 SE8       30.06S VSB 1/2

...WESTERN AND NORTH CENTRAL NEBRASKA...

CITY           SKY/WX    TMP DP  RH WIND       PRES   REMARKS
VALENTINE      CLOUDY    48  46  93 E5        30.12F
AINSWORTH      DRIZZLE   49  49  98 SE8       30.13S
ONEILL         CLOUDY    51  50  96 SE6       30.16F
BROKEN BOW     CLOUDY    52  51  97 SE12      30.10F FOG
IMPERIAL       RAIN      52  51  97 SE17      30.06S
NORTH PLATTE   CLOUDY    51  50  96 SE7       30.08F
MCCOOK         CLOUDY    54  53  97 SE10      30.09S FOG

...EASTERN NEBRASKA...

CITY           SKY/WX    TMP DP  RH WIND       PRES   REMARKS
NORFOLK        CLOUDY    54  51  90 SE6       30.17F
SO SIOUX CITY  CLOUDY    56  50  80 CALM      30.19S
TEKAMAH        CLOUDY    58  51  78 S3        30.19R
COLUMBUS       CLOUDY    55  43  62 S6        30.21R
ALBION         CLOUDY    53  47  81 SE7       30.16S
OMAHA EPPLEY   CLOUDY    60  49  66 SE10      30.19S
OFFUTT AFB     CLOUDY    57  51  78 SE3       30.19R
MILLARD        CLOUDY    60  50  70 SE5       30.19R
LINCOLN        CLOUDY    58  47  66 S7        30.19S
NEBRASKA CITY  CLOUDY    57  48  73 SE3       30.19S
BEATRICE       CLOUDY    56  48  74 SE5       30.17F
FALLS CITY     CLOUDY    56  51  84 SE6       30.18F

...NORTHERN KANSAS...

CITY           SKY/WX    TMP DP  RH WIND       PRES   REMARKS
GOODLAND       LGT RAIN  53  53 100 SE17G33   30.03S FOG
HILL CITY      CLOUDY    55  53  93 S14G23    30.11S
NORTON         CLOUDY    54  50  87 SE12G17   30.10S
PHILLIPSBURG   CLOUDY    57  57 100 SE9       30.13S
SMITH CENTER   CLOUDY    52  52 100 SE12      30.14F
HAYS           CLOUDY    54  48  82 SE13G18   30.13S
RUSSELL        CLOUDY    54  54 100 S14       30.13S
CONCORDIA      CLOUDY    55  50  83 S10       30.17S
SALINA         CLOUDY    56  52  86 SE9       30.17S
TOPEKA         LGT RAIN  60  54  80 E6        30.18F



USA.gov is the U.S. government's official web portal to all federal, state and local government web resources and services.